Tracking 31027 objects as of 19-Jul-2025
HD Live streaming from Space Station
objects crossing your sky now

STARLINK-6303

Track STARLINK-6303 now!
10-day predictions
STARLINK-6303 is classified as:


NORAD ID: 56393
Int'l Code: 2023-061V
Perigee: 565.3 km
Apogee: 567.2 km
Inclination: 43.0 °
Period: 95.8 minutes
Semi major axis: 6937 km
RCS: Unknown
Launch date: May 4, 2023
Source: United States (US)
Launch site: AIR FORCE EASTERN TEST RANGE (AFETR)
Your satellite tracking list
OBJECT A
Track 1 satellite(s)




NASA's NSSDC Master Catalog

Two Line Element Set (TLE):
1 56393U 23061V   25199.78361387  .00000202  00000-0  30000-4 0  9998
2 56393  43.0054  28.0542 0001376 269.7389  90.3296 15.02533612121579
Source of the keplerian elements: AFSPC